Notices

What's New in latest Release from April 7th, 2021:

- Updated Glossary, including Speed of Maximum Gust, and Total Hourly Precipitation

- Updated national and regional climate services offices contacts and prices information

- Addition of station inventory lists for 1981-2010, 1971-2000, and 1961-1990 Normals.

If you haven't already, please take our survey and provide feedback about our website: https://eccc.sondage-survey.ca/f/LanguageSelection.aspx?s=442ca660-fcf1-47c0-95a9-59707d6fd709

Hourly Data Report for April 03, 2012

MIRAMICHI RCS
NEW BRUNSWICK

47°00'34.000" N
65°27'54.000" W
33.00 m
8100989
71744
ACQ

Download Data

Hourly Data (April 2012)
Hourly Data Report for April 3, 2012
TIME
LST
Temp Definition
°C
Dew Point Definition
°C
Rel Hum Definition
%
Precip. Amount Definition
mm

Wind Dir Definition
10's deg

Wind Spd Definition
km/h
Visibility Definition
km
Stn Press Definition
kPa
Hmdx Definition


Wind Chill Definition


Weather Definition


00:00 -2.3 -8.4 63   32 2   100.00   -3 LegendNANA
01:00 -2.5 -8.0 66   32 4   100.00   -4 LegendNANA
02:00 -2.4 -7.7 67   23 2   99.99   -3 LegendNANA
03:00 -3.2 -7.3 73   29 4   99.96   -5 LegendNANA
04:00 -2.2 -6.5 72   33 6   99.97   -5 LegendNANA
05:00 -1.7 -6.3 71   33 7   99.99   -4 LegendNANA
06:00 -1.9 -6.8 69   34 11   100.03   -6 LegendNANA
07:00 -1.8 -7.2 67   34 7   100.10   -4 LegendNANA
08:00 -0.4 -7.8 57   35 15   100.13   -5 LegendNANA
09:00 0.3 -9.6 47   36 15   100.12     LegendNANA
10:00 1.7 -9.4 43   1 15   100.09     LegendNANA
11:00 2.9 -8.9 41   2 15   100.09     LegendNANA
12:00 4.0 -7.6 42   32 13   100.04     LegendNANA
13:00 4.4 -7.7 41   4 17   100.03     LegendNANA
14:00 5.7 -6.9 40   3 15   99.93     LegendNANA
15:00 6.9 -6.3 38   2 15   99.86     LegendNANA
16:00 6.9 -5.5 41   5 15   99.79     LegendNANA
17:00 6.2 -5.6 42   3 11   99.83     LegendNANA
18:00 3.6 -5.0 53   9 15   99.82     LegendNANA
19:00 0.9 -5.2 64   5 7   99.88     LegendNANA
20:00 -0.5 -4.6 74   3 4   99.95   -2 LegendNANA
21:00 -1.4 -4.4 80   31 6   99.90   -4 LegendNANA
22:00 -1.3 -4.4 79   27 4   99.81   -3 LegendNANA
23:00 0.2 -5.8 64   30 6   99.72     LegendNANA

Notes on Data Quality.

Legend

  • E = Estimated
  • M = Missing
  • NA = Not Available*
  • [empty] = Indicates an unobserved value
Date modified: